Weather History for Cape Race, NL

Change the Weather History Date:

Thursday, November 1, 2012

  Actual Average Record
Temperature  
Mean Temperature 48 °F -  
Max Temperature 50 °F - - ()
Min Temperature 46 °F - - ()
Degree Days  
Heating Degree Days 17    
Moisture  
Dew Point 48 °F    
Average Humidity 96    
Maximum Humidity 100    
Minimum Humidity 86    
Precipitation  
Precipitation 0.24 in - - ()
Sea Level Pressure  
Sea Level Pressure 30.01 in    
Wind  
Wind Speed 9 mph ()    
Max Wind Speed 20 mph    
Max Gust Speed 26 mph    
T = Trace of Precipitation, MM = Missing Value Source: Averaged Metar Reports

Daily Weather History Graph

Daily Weather History Graph

Search for Another Location

Airport:

Trip Planner

Search our weather history database for the weather conditions in past years. The results will help you decide how hot, cold, wet, or windy it might be!

Date:

Astronomy

Nov. 01, 2012 Rise Set
Actual Time 7:44 AM NDT 5:46 PM NDT
Civil Twilight 7:13 AM NDT 6:17 PM NDT
Nautical Twilight 6:37 AM NDT 6:53 PM NDT
Astronomical Twilight 6:02 AM NDT 7:28 PM NDT
Moon 7:30 PM NDT (11/1) 10:20 AM NDT (11/1)
Length of Visible Light 11h 04m
Length of Day
10h 01m
Waning Gibbous, 93% of the Moon is Illuminated
Nov 1
Waning Gibbous
Nov 6
Last Quarter
Nov 13
New
Nov 20
First Quarter
Nov 28
Full

Hourly Weather History & Observations

Time (NDT) Temp. Dew Point Humidity Pressure Visibility Wind Dir Wind Speed Gust Speed Precip Events Conditions
12:30 AM 48 °F 45 °F 86% 30.12 in - SE 9.2 mph - -  
12:30 AM 48.2 °F 45.1 °F 89% 30.12 in - SE 9.2 mph - N/A   Unknown
1:30 AM 47.7 °F 45.7 °F 93% 30.12 in - SE 8.1 mph - N/A   Unknown
2:30 AM 47.7 °F 45.7 °F 93% 30.11 in - SE 8.1 mph - N/A   Unknown
3:30 AM 48 °F 46 °F 88% 30.09 in - SE 6.9 mph - -  
3:30 AM 47.7 °F 45.5 °F 92% 30.09 in - SE 6.9 mph - N/A   Unknown
4:30 AM 47.5 °F 45.5 °F 93% 30.07 in - ESE 4.6 mph - N/A   Unknown
5:30 AM 47.8 °F 45.9 °F 93% 30.06 in - NNE 4.6 mph - N/A   Unknown
6:30 AM 47 °F 46 °F 96% 30.04 in - NE 4.6 mph - -  
6:30 AM 47.5 °F 46.2 °F 95% 30.04 in - NE 4.6 mph - N/A   Unknown
7:30 AM 47.8 °F 46.8 °F 96% 30.03 in - ENE 4.6 mph - N/A   Unknown
8:30 AM 48.6 °F 47.7 °F 97% 30.03 in - ESE 11.5 mph - N/A   Unknown
9:30 AM 49 °F 48 °F 96% 30.03 in - ESE 12.7 mph - -  
9:30 AM 48.7 °F 48.2 °F 98% 30.03 in - ESE 12.7 mph - N/A   Unknown
10:30 AM 48.7 °F 47.8 °F 97% 30.03 in - SE 11.5 mph - N/A   Unknown
11:30 AM 49.1 °F 48.0 °F 96% 30.03 in - SSE 11.5 mph - N/A   Unknown
12:30 PM 49 °F 48 °F 94% 30.01 in - ESE 13.8 mph - -  
12:30 PM 48.7 °F 47.8 °F 97% 30.01 in - ESE 13.8 mph 19.6 mph N/A   Unknown
1:30 PM 49.3 °F 48.6 °F 97% 30.00 in - ESE 8.1 mph - N/A   Unknown
2:30 PM 49.1 °F 48.4 °F 97% 29.98 in - East 5.8 mph - N/A   Unknown
3:30 PM 49 °F 49 °F 98% 29.98 in - East 8.1 mph - -  
3:30 PM 49.1 °F 48.6 °F 98% 29.98 in - East 8.1 mph - N/A   Unknown
4:30 PM 49.1 °F 48.6 °F 98% 29.96 in - ESE 8.1 mph - N/A   Unknown
5:30 PM 49.1 °F 48.6 °F 98% 29.94 in - SE 12.7 mph - N/A   Unknown
6:30 PM 49 °F 49 °F 98% 29.93 in - SE 15.0 mph - -  
6:30 PM 48.9 °F 48.6 °F 99% 29.93 in - SE 15.0 mph - N/A   Unknown
7:30 PM 49.5 °F 49.1 °F 99% 29.93 in - SE 17.3 mph - N/A   Unknown
8:30 PM 49.3 °F 48.9 °F 99% 29.91 in - ESE 17.3 mph 25.3 mph N/A   Unknown
9:30 PM 49 °F 49 °F 100% 29.92 in - ESE 17.3 mph - -  
9:30 PM 49.3 °F 49.1 °F 99% 29.92 in - ESE 17.3 mph 23.0 mph N/A   Unknown
10:30 PM 49.5 °F 49.3 °F 99% 29.89 in - ESE 19.6 mph 25.3 mph N/A   Unknown
11:30 PM 49.5 °F 49.3 °F 99% 29.88 in - SE 18.4 mph 26.5 mph N/A   Unknown